LEMUR-2-LD

Last updated on Fri Mar 10 2017 00:15:03 GMT+0000 (Greenwich Mean Time)

1 42068U 98067LD 17068.87687255 .00020640 00000-0 30990-3 0 9996 2 42068 51.6423 173.3287 0008552 286.4593 73.5450 15.54824510 471

Satellite not in orbit